#timestamp,LO_Frequency,Hit,StdDev 
1657958415.7,286046996.9,N
1657958435.5,286047000.9,N
1657958455.3,286046999.6,N
1657958475.2,286046998.9,N
1657958495.0,286046999.2,N
1657958495.9,286046999.2,N
1657958515.8,286046998.5,N
1657958535.6,286046998.8,N
1657958555.4,286047002.3,N
1657958575.3,286047002.9,N
1657958595.1,286047004.2,N
1657958615.8,286047004.1,N
1657958635.7,286047004.3,N
1657958655.5,286047004.2,N
1657958675.4,286047006.0,N
1657958695.2,286047005.9,N
1657958715.0,286047003.0,N
1657958715.9,286047003.0,N
1657958735.8,286047004.7,N
1657958755.6,286047007.6,N
1657958775.5,286047006.1,N
1657958795.3,286047007.3,N
1657958815.1,286047008.8,N
1657958835.9,286047010.1,N
1657958855.7,286047010.8,N
1657958875.5,286047010.2,N
1657958895.4,286047010.0,N
1657958915.2,286047010.0,N
1657958935.1,286047011.8,N
1657958936.0,286047011.8,N
1657958955.8,286047011.8,N
1657958975.6,286047012.1,N
1657958995.5,286047011.6,N
1657959015.3,286047013.5,Y
1657959035.1,286047008.7,P
1657959055.9,286047006.4,P
1657959075.7,286047006.2,P
1657959095.6,286047008.0,Y
1657959115.4,286046999.7,P
1657959135.2,286047002.4,N
1657959155.1,286047002.1,N
1657959156.0,286047002.1,N
1657959175.8,286047000.2,N
1657959195.6,286047002.1,N
1657959215.5,286047002.2,N
1657959235.3,286047002.0,N
1657959255.2,286047004.0,N
1657959275.9,286047003.9,N
1657959295.7,286047003.1,N
1657959315.6,286047003.4,N
1657959335.4,286047005.5,Y
1657959355.2,286047001.8,P
1657959375.1,286047003.5,P
1657959376.0,286047003.5,P
1657959395.8,286047003.7,Y
1657959415.7,286047000.1,P
1657959435.5,286047000.8,N
1657959455.3,286047000.3,N
1657959475.2,286047000.8,N
1657959495.0,286047001.1,N
1657959495.9,286047001.1,N
1657959515.7,286047000.7,N
1657959535.6,286047002.8,Y
1657959555.4,286047000.2,P
1657959575.3,286047002.1,P
1657959595.1,286047001.9,N
1657959615.8,286047003.9,Y
1657959635.7,286047001.1,P
1657959685.5,286046999.1,E
1657959695.5,286046998.9,N
1657959715.3,286046998.5,P
1657959735.1,286047002.4,P
1657959755.9,286047002.0,N
1657959775.7,286047002.2,N
1657959795.6,286047001.6,N
1657959815.4,286047003.3,N
1657959835.2,286047002.1,N
1657959855.1,286047001.8,N
1657959856.0,286047001.8,N
1657959875.8,286046999.9,N
1657959895.7,286047002.4,N
1657959915.5,286046999.8,N
1657959935.3,286047000.3,N
1657959955.2,286047001.7,N
1657959975.0,286047001.4,N
1657959975.9,286047001.4,N
1657959995.7,286047003.4,N
1657960015.6,286047005.2,Y
1657960035.4,286047003.8,P
1657960055.3,286047003.2,N
1657960075.1,286047005.3,P
1657960095.8,286047005.0,Y
1657960115.7,286047004.1,P
1657960135.5,286047002.1,P
1657960155.4,286047004.3,P
1657960175.2,286047001.5,N
1657960195.0,286047004.4,Y
1657960195.9,286047004.4,P
1657960215.8,286046998.7,N
1657960235.6,286047001.0,N
1657960255.5,286047000.0,N
1657960275.3,286047000.0,N
1657960295.1,286047000.6,N
1657960315.9,286047000.5,N
1657960335.7,286047000.1,N
1657960355.5,286047001.9,N
1657960375.4,286047001.5,N
1657960395.2,286047001.7,N
1657960415.0,286047003.4,N
1657960416.0,286047003.4,N
1657960435.8,286047002.9,N
1657960455.6,286047001.5,N
1657960475.5,286047003.1,N
1657960495.3,286047001.5,N
1657960515.1,286047002.5,N
1657960535.9,286047000.2,N
1657960555.7,286047002.2,N
1657960575.5,286046999.8,N
1657960595.4,286047000.7,N
1657960615.2,286047001.1,N
1657960635.1,286046998.3,N
1657960636.0,286046998.3,N
1657960655.8,286046998.2,N
1657960675.6,286047000.0,N
1657960695.5,286046999.7,N
1657960715.3,286047001.8,N
1657960735.1,286047003.2,N
1657960755.9,286047003.3,N
1657960775.7,286047004.4,N
1657960795.6,286047004.3,N
1657960815.4,286047004.4,N
1657960835.2,286047003.0,N
1657960855.1,286047002.9,N
1657960856.0,286047002.9,N
1657960875.8,286047005.0,N
1657960895.6,286047004.6,N
1657960915.5,286047003.7,N
1657960935.3,286047003.2,N
1657960955.2,286047005.1,N
1657960975.9,286047004.6,N
1657960995.7,286047005.6,N
1657961015.6,286047003.7,N
1657961035.4,286047003.3,N
1657961055.2,286047006.0,N
1657961075.1,286047003.6,N
1657961076.0,286047003.6,N
1657961095.8,286047003.5,N
1657961115.7,286047003.2,N
1657961135.5,286047003.4,N
1657961155.3,286047002.9,N
1657961175.2,286047006.0,N
1657961195.0,286047006.0,Y
1657961195.9,286047006.0,P
1657961215.8,286047002.4,N
1657961235.6,286047002.0,N
1657961255.4,286047002.4,N
1657961275.3,286047002.2,N
1657961295.1,286047002.2,N
1657961315.8,286047002.1,N
1657961335.7,286047002.7,N
1657961355.5,286046998.6,N
1657961375.4,286046999.4,N
1657961395.2,286046998.9,N
1657961415.0,286046999.3,N
1657961415.9,286046999.3,N
1657961435.8,286046999.6,N
1657961455.6,286046996.9,N
1657961475.4,286046998.8,N
1657961495.3,286046995.0,N
1657961515.1,286046996.9,N
1657961535.9,286046997.4,N
1657961555.7,286046998.9,N
1657961575.5,286047000.8,N
1657961595.4,286046999.0,N
1657961615.2,286046997.2,N
1657961635.0,286046996.5,N
1657961635.9,286046996.5,N
1657961655.8,286047001.1,N
1657961675.6,286047000.0,N
1657961695.5,286047002.7,N
1657961715.3,286046998.2,N
1657961735.1,286047000.3,N
1657961755.9,286047000.2,N
1657961775.7,286047002.3,N
1657961795.5,286047000.1,N
1657961815.4,286047002.6,N
1657961835.2,286047002.1,N
1657961855.0,286047001.9,N
1657961856.0,286047001.9,N
1657961875.8,286047002.0,N
1657961895.6,286047004.3,N
1657961915.5,286047004.3,N
1657961935.3,286047001.3,N
1657961955.1,286047004.1,N
1657961975.9,286047003.5,N
1657961995.7,286047004.1,N
